Year,Month,Day,Hour,Minute,Value (Times are PST for temperature in C)
2014,07,28,00,00,17.70
2014,07,28,00,01,17.70
2014,07,28,00,02,17.60
2014,07,28,00,03,17.60
2014,07,28,00,04,17.60
2014,07,28,00,05,17.60
2014,07,28,00,06,17.60
2014,07,28,00,07,17.60
2014,07,28,00,08,17.60
2014,07,28,00,09,17.60
2014,07,28,00,10,17.70
2014,07,28,00,11,17.70
2014,07,28,00,12,17.70
2014,07,28,00,13,17.70
2014,07,28,00,14,17.70
2014,07,28,00,15,17.70
2014,07,28,00,16,17.70
2014,07,28,00,17,17.70
2014,07,28,00,18,17.70
2014,07,28,00,19,17.70
2014,07,28,00,20,17.70
2014,07,28,00,21,17.70
2014,07,28,00,22,17.80
2014,07,28,00,23,17.80
2014,07,28,00,24,17.80
2014,07,28,00,25,17.90
2014,07,28,00,26,17.90
2014,07,28,00,27,17.90
2014,07,28,00,28,17.90
2014,07,28,00,29,17.90
2014,07,28,00,30,17.90
2014,07,28,00,31,17.90
2014,07,28,00,32,17.90
2014,07,28,00,33,17.90
2014,07,28,00,34,17.90
2014,07,28,00,35,17.90
2014,07,28,00,36,17.90
2014,07,28,00,37,17.90
2014,07,28,00,38,17.90
2014,07,28,00,39,17.80
2014,07,28,00,40,17.80
2014,07,28,00,41,17.70
2014,07,28,00,42,17.70
2014,07,28,00,43,17.70
2014,07,28,00,44,17.60
2014,07,28,00,45,17.60
2014,07,28,00,46,17.60
2014,07,28,00,47,17.60
2014,07,28,00,48,17.60
2014,07,28,00,49,17.60
2014,07,28,00,50,17.70
2014,07,28,00,51,17.70
2014,07,28,00,52,17.70
2014,07,28,00,53,17.70
2014,07,28,00,54,17.70
2014,07,28,00,55,17.70
2014,07,28,00,56,17.70
2014,07,28,00,57,17.70
2014,07,28,00,58,17.70
2014,07,28,00,59,17.70
2014,07,28,01,00,17.70
2014,07,28,01,01,17.70
2014,07,28,01,02,17.70
2014,07,28,01,03,17.70
2014,07,28,01,04,17.70
2014,07,28,01,05,17.70
2014,07,28,01,06,17.70
2014,07,28,01,07,17.70
2014,07,28,01,08,17.70
2014,07,28,01,09,17.70
2014,07,28,01,10,17.70
2014,07,28,01,11,17.70
2014,07,28,01,12,17.70
2014,07,28,01,13,17.70
2014,07,28,01,14,17.70
2014,07,28,01,15,17.70
2014,07,28,01,16,17.70
2014,07,28,01,17,17.70
2014,07,28,01,18,17.70
2014,07,28,01,19,17.70
2014,07,28,01,20,17.70
2014,07,28,01,21,17.70
2014,07,28,01,22,17.80
2014,07,28,01,23,17.80
2014,07,28,01,24,17.80
2014,07,28,01,25,17.90
2014,07,28,01,26,17.90
2014,07,28,01,27,17.90
2014,07,28,01,28,17.90
2014,07,28,01,29,18.00
2014,07,28,01,30,18.00
2014,07,28,01,31,18.10
2014,07,28,01,32,18.10
2014,07,28,01,33,18.20
2014,07,28,01,34,18.10
2014,07,28,01,35,18.10
2014,07,28,01,36,18.10
2014,07,28,01,37,18.00
2014,07,28,01,38,18.00
2014,07,28,01,39,17.90
2014,07,28,01,40,17.90
2014,07,28,01,41,17.90
2014,07,28,01,42,17.90
2014,07,28,01,43,17.80
2014,07,28,01,44,17.80
2014,07,28,01,45,17.80
2014,07,28,01,46,17.80
2014,07,28,01,47,17.80
2014,07,28,01,48,17.80
2014,07,28,01,49,17.80
2014,07,28,01,50,17.80
2014,07,28,01,51,17.80
2014,07,28,01,52,17.80
2014,07,28,01,53,17.80
2014,07,28,01,54,17.80
2014,07,28,01,55,17.80
2014,07,28,01,56,17.80
2014,07,28,01,57,17.80
2014,07,28,01,58,17.80
2014,07,28,01,59,17.80
2014,07,28,02,00,17.90
2014,07,28,02,01,17.90
2014,07,28,02,02,17.90
2014,07,28,02,03,17.90
2014,07,28,02,04,17.80
2014,07,28,02,05,17.80
2014,07,28,02,06,17.80
2014,07,28,02,07,17.80
2014,07,28,02,08,17.70
2014,07,28,02,09,17.70
2014,07,28,02,10,17.70
2014,07,28,02,11,17.70
2014,07,28,02,12,17.60
2014,07,28,02,13,17.60
2014,07,28,02,14,17.60
2014,07,28,02,15,17.60
2014,07,28,02,16,17.60
2014,07,28,02,17,17.60
2014,07,28,02,18,17.60
2014,07,28,02,19,17.60
2014,07,28,02,20,17.60
2014,07,28,02,21,17.60
2014,07,28,02,22,17.60
2014,07,28,02,23,17.60
2014,07,28,02,24,17.50
2014,07,28,02,25,17.50
2014,07,28,02,26,17.50
2014,07,28,02,27,17.40
2014,07,28,02,28,17.40
2014,07,28,02,29,17.40
2014,07,28,02,30,17.40
2014,07,28,02,31,17.40
2014,07,28,02,32,17.40
2014,07,28,02,33,17.40
2014,07,28,02,34,17.40
2014,07,28,02,35,17.40
2014,07,28,02,36,17.40
2014,07,28,02,37,17.40
2014,07,28,02,38,17.40
2014,07,28,02,39,17.40
2014,07,28,02,40,17.40
2014,07,28,02,41,17.40
2014,07,28,02,42,17.30
2014,07,28,02,43,17.30
2014,07,28,02,44,17.30
2014,07,28,02,45,17.20
2014,07,28,02,46,17.10
2014,07,28,02,47,17.10
2014,07,28,02,48,17.00
2014,07,28,02,49,16.90
2014,07,28,02,50,16.80
2014,07,28,02,51,16.80
2014,07,28,02,52,16.80
2014,07,28,02,53,16.70
2014,07,28,02,54,16.70
2014,07,28,02,55,16.70
2014,07,28,02,56,16.70
2014,07,28,02,57,16.70
2014,07,28,02,58,16.70
2014,07,28,02,59,16.70
2014,07,28,03,00,16.70
2014,07,28,03,01,16.70
2014,07,28,03,02,16.60
2014,07,28,03,03,16.60
2014,07,28,03,04,16.60
2014,07,28,03,05,16.60
2014,07,28,03,06,16.60
2014,07,28,03,07,16.50
2014,07,28,03,08,16.50
2014,07,28,03,09,16.50
2014,07,28,03,10,16.50
2014,07,28,03,11,16.50
2014,07,28,03,12,16.50
2014,07,28,03,13,16.40
2014,07,28,03,14,16.40
2014,07,28,03,15,16.40
2014,07,28,03,16,16.40
2014,07,28,03,17,16.40
2014,07,28,03,18,16.40
2014,07,28,03,19,16.40
2014,07,28,03,20,16.40
2014,07,28,03,21,16.40
2014,07,28,03,22,16.30
2014,07,28,03,23,16.40
2014,07,28,03,24,16.30
2014,07,28,03,25,16.30
2014,07,28,03,26,16.40
2014,07,28,03,27,16.40
2014,07,28,03,28,16.40
2014,07,28,03,29,16.40
2014,07,28,03,30,16.40
2014,07,28,03,31,16.40
2014,07,28,03,32,16.40
2014,07,28,03,33,16.40
2014,07,28,03,34,16.40
2014,07,28,03,35,16.40
2014,07,28,03,36,16.40
2014,07,28,03,37,16.40
2014,07,28,03,38,16.30
2014,07,28,03,39,16.30
2014,07,28,03,40,16.30
2014,07,28,03,41,16.30
2014,07,28,03,42,16.20
2014,07,28,03,43,16.20
2014,07,28,03,44,16.20
2014,07,28,03,45,16.20
2014,07,28,03,46,16.20
2014,07,28,03,47,16.20
2014,07,28,03,48,16.20
2014,07,28,03,49,16.20
2014,07,28,03,50,16.20
2014,07,28,03,51,16.20
2014,07,28,03,52,16.20
2014,07,28,03,53,16.30
2014,07,28,03,54,16.30
2014,07,28,03,55,16.30
2014,07,28,03,56,16.20
2014,07,28,03,57,16.20
2014,07,28,03,58,16.20
2014,07,28,03,59,16.20
2014,07,28,04,00,16.20
2014,07,28,04,01,16.20
2014,07,28,04,02,16.20
2014,07,28,04,03,16.20
2014,07,28,04,04,16.20
2014,07,28,04,05,16.20
2014,07,28,04,06,16.20
2014,07,28,04,07,16.10
2014,07,28,04,08,16.10
2014,07,28,04,09,16.10
2014,07,28,04,10,16.00
2014,07,28,04,11,16.00
2014,07,28,04,12,16.00
2014,07,28,04,13,15.90
2014,07,28,04,14,15.90
2014,07,28,04,15,15.90
2014,07,28,04,16,15.90
2014,07,28,04,17,15.80
2014,07,28,04,18,15.80
2014,07,28,04,19,15.80
2014,07,28,04,20,15.80
2014,07,28,04,21,15.80
2014,07,28,04,22,15.70
2014,07,28,04,23,15.70
2014,07,28,04,24,15.70
2014,07,28,04,25,15.70
2014,07,28,04,26,15.70
2014,07,28,04,27,15.70
2014,07,28,04,28,15.70
2014,07,28,04,29,15.70
2014,07,28,04,30,15.70
2014,07,28,04,31,15.70
2014,07,28,04,32,15.60
2014,07,28,04,33,15.60
2014,07,28,04,34,15.60
2014,07,28,04,35,15.60
2014,07,28,04,36,15.50
2014,07,28,04,37,15.50
2014,07,28,04,38,15.50
2014,07,28,04,39,15.40
2014,07,28,04,40,15.40
2014,07,28,04,41,15.40
2014,07,28,04,42,15.40
2014,07,28,04,43,15.40
2014,07,28,04,44,15.40
2014,07,28,04,45,15.50
2014,07,28,04,46,15.50
2014,07,28,04,47,15.50
2014,07,28,04,48,15.50
2014,07,28,04,49,15.50
2014,07,28,04,50,15.50
2014,07,28,04,51,15.40
2014,07,28,04,52,15.40
2014,07,28,04,53,15.40
2014,07,28,04,54,15.40
2014,07,28,04,55,15.30
2014,07,28,04,56,15.30
2014,07,28,04,57,15.30
2014,07,28,04,58,15.30
2014,07,28,04,59,15.30
2014,07,28,05,00,15.30
2014,07,28,05,01,15.20
2014,07,28,05,02,15.20
2014,07,28,05,03,15.20
2014,07,28,05,04,15.20
2014,07,28,05,05,15.20
2014,07,28,05,06,15.20
2014,07,28,05,07,15.20
2014,07,28,05,08,15.20
2014,07,28,05,09,15.20
2014,07,28,05,10,15.10
2014,07,28,05,11,15.10
2014,07,28,05,12,15.10
2014,07,28,05,13,15.10
2014,07,28,05,14,15.10
2014,07,28,05,15,15.10
2014,07,28,05,16,15.10
2014,07,28,05,17,15.10
2014,07,28,05,18,15.00
2014,07,28,05,19,15.00
2014,07,28,05,20,15.00
2014,07,28,05,21,15.00
2014,07,28,05,22,14.90
2014,07,28,05,23,14.90
2014,07,28,05,24,14.90
2014,07,28,05,25,14.80
2014,07,28,05,26,14.80
2014,07,28,05,27,14.80
2014,07,28,05,28,14.80
2014,07,28,05,29,14.80
2014,07,28,05,30,14.80
2014,07,28,05,31,14.80
2014,07,28,05,32,14.80
2014,07,28,05,33,14.80
2014,07,28,05,34,14.80
2014,07,28,05,35,14.80
2014,07,28,05,36,14.80
2014,07,28,05,37,14.80
2014,07,28,05,38,14.80
2014,07,28,05,39,14.80
2014,07,28,05,40,14.80
2014,07,28,05,41,14.70
2014,07,28,05,42,14.70
2014,07,28,05,43,14.70
2014,07,28,05,44,14.70
2014,07,28,05,45,14.70
2014,07,28,05,46,14.70
2014,07,28,05,47,14.70
2014,07,28,05,48,14.70
2014,07,28,05,49,14.70
2014,07,28,05,50,14.70
2014,07,28,05,51,14.80
2014,07,28,05,52,14.70
2014,07,28,05,53,14.70
2014,07,28,05,54,14.70
2014,07,28,05,55,14.70
2014,07,28,05,56,14.70
2014,07,28,05,57,14.70
2014,07,28,05,58,14.70
2014,07,28,05,59,14.70
2014,07,28,06,00,14.70
2014,07,28,06,01,14.80
2014,07,28,06,02,14.80
2014,07,28,06,03,14.80
2014,07,28,06,04,14.80
2014,07,28,06,05,14.80
2014,07,28,06,06,14.80
2014,07,28,06,07,14.80
2014,07,28,06,08,14.80
2014,07,28,06,09,14.80
2014,07,28,06,10,14.80
2014,07,28,06,11,14.80
2014,07,28,06,12,14.80
2014,07,28,06,13,14.80
2014,07,28,06,14,14.90
2014,07,28,06,15,14.90
2014,07,28,06,16,14.90
2014,07,28,06,17,14.90
2014,07,28,06,18,15.00
2014,07,28,06,19,15.00
2014,07,28,06,20,15.00
2014,07,28,06,21,15.10
2014,07,28,06,22,15.10
2014,07,28,06,23,15.10
2014,07,28,06,24,15.10
2014,07,28,06,25,15.20
2014,07,28,06,26,15.20
2014,07,28,06,27,15.20
2014,07,28,06,28,15.20
2014,07,28,06,29,15.20
2014,07,28,06,30,15.20
2014,07,28,06,31,15.30
2014,07,28,06,32,15.30
2014,07,28,06,33,15.30
2014,07,28,06,34,15.30
2014,07,28,06,35,15.30
2014,07,28,06,36,15.30
2014,07,28,06,37,15.30
2014,07,28,06,38,15.30
2014,07,28,06,39,15.30
2014,07,28,06,40,15.30
2014,07,28,06,41,15.30
2014,07,28,06,42,15.30
2014,07,28,06,43,15.30
2014,07,28,06,44,15.30
2014,07,28,06,45,15.30
2014,07,28,06,46,15.30
2014,07,28,06,47,15.30
2014,07,28,06,48,15.30
2014,07,28,06,49,15.30
2014,07,28,06,50,15.30
2014,07,28,06,51,15.40
2014,07,28,06,52,15.40
2014,07,28,06,53,15.40
2014,07,28,06,54,15.40
2014,07,28,06,55,15.40
2014,07,28,06,56,15.50
2014,07,28,06,57,15.50
2014,07,28,06,58,15.50
2014,07,28,06,59,15.60
2014,07,28,07,00,15.60
2014,07,28,07,01,15.60
2014,07,28,07,02,15.60
2014,07,28,07,03,15.60
2014,07,28,07,04,15.60
2014,07,28,07,05,15.60
2014,07,28,07,06,15.60
2014,07,28,07,07,15.60
2014,07,28,07,08,15.50
2014,07,28,07,09,15.50
2014,07,28,07,10,15.50
2014,07,28,07,11,15.40
2014,07,28,07,12,15.40
2014,07,28,07,13,15.40
2014,07,28,07,14,15.30
2014,07,28,07,15,15.30
2014,07,28,07,16,15.30
2014,07,28,07,17,15.30
2014,07,28,07,18,15.30
2014,07,28,07,19,15.30
2014,07,28,07,20,15.30
2014,07,28,07,21,15.30
2014,07,28,07,22,15.30
2014,07,28,07,23,15.30
2014,07,28,07,24,15.30
2014,07,28,07,25,15.30
2014,07,28,07,26,15.30
2014,07,28,07,27,15.30
2014,07,28,07,28,15.40
2014,07,28,07,29,15.40
2014,07,28,07,30,15.40
2014,07,28,07,31,15.40
2014,07,28,07,32,15.50
2014,07,28,07,33,15.50
2014,07,28,07,34,15.50
2014,07,28,07,35,15.60
2014,07,28,07,36,15.60
2014,07,28,07,37,15.70
2014,07,28,07,38,15.70
2014,07,28,07,39,15.80
2014,07,28,07,40,15.80
2014,07,28,07,41,15.80
2014,07,28,07,42,15.80
2014,07,28,07,43,15.90
2014,07,28,07,44,15.90
2014,07,28,07,45,15.90
2014,07,28,07,46,16.00
2014,07,28,07,47,16.00
2014,07,28,07,48,16.10
2014,07,28,07,49,16.10
2014,07,28,07,50,16.10
2014,07,28,07,51,16.10
2014,07,28,07,52,16.10
2014,07,28,07,53,16.10
2014,07,28,07,54,16.10
2014,07,28,07,55,16.10
2014,07,28,07,56,16.10
2014,07,28,07,57,16.10
2014,07,28,07,58,16.10
2014,07,28,07,59,16.20
2014,07,28,08,00,16.20
2014,07,28,08,01,16.20
2014,07,28,08,02,16.20
2014,07,28,08,03,16.20
2014,07,28,08,04,16.20
2014,07,28,08,05,16.20
2014,07,28,08,06,16.30
2014,07,28,08,07,16.30
2014,07,28,08,08,16.30
2014,07,28,08,09,16.30
2014,07,28,08,10,16.30
2014,07,28,08,11,16.40
2014,07,28,08,12,16.40
2014,07,28,08,13,16.40
2014,07,28,08,14,16.40
2014,07,28,08,15,16.40
2014,07,28,08,16,16.50
2014,07,28,08,17,16.60
2014,07,28,08,18,16.60
2014,07,28,08,19,16.70
2014,07,28,08,20,16.70
2014,07,28,08,21,16.70
2014,07,28,08,22,16.80
2014,07,28,08,23,16.80
2014,07,28,08,24,16.80
2014,07,28,08,25,16.90
2014,07,28,08,26,16.90
2014,07,28,08,27,16.90
2014,07,28,08,28,16.90
2014,07,28,08,29,16.90
2014,07,28,08,30,16.90
2014,07,28,08,31,17.00
2014,07,28,08,32,17.00
2014,07,28,08,33,17.00
2014,07,28,08,34,17.00
2014,07,28,08,35,17.00
2014,07,28,08,36,17.00
2014,07,28,08,37,17.00
2014,07,28,08,38,17.00
2014,07,28,08,39,17.00
2014,07,28,08,40,17.10
2014,07,28,08,41,17.10
2014,07,28,08,42,17.10
2014,07,28,08,43,17.20
2014,07,28,08,44,17.20
2014,07,28,08,45,17.30
2014,07,28,08,46,17.30
2014,07,28,08,47,17.30
2014,07,28,08,48,17.40
2014,07,28,08,49,17.40
2014,07,28,08,50,17.50
2014,07,28,08,51,17.60
2014,07,28,08,52,17.60
2014,07,28,08,53,17.60
2014,07,28,08,54,17.60
2014,07,28,08,55,17.60
2014,07,28,08,56,17.60
2014,07,28,08,57,17.60
2014,07,28,08,58,17.60
2014,07,28,08,59,17.60
2014,07,28,09,00,17.70
2014,07,28,09,01,17.70
2014,07,28,09,02,17.80
2014,07,28,09,03,17.80
2014,07,28,09,04,17.80
2014,07,28,09,05,17.80
2014,07,28,09,06,17.90
2014,07,28,09,07,17.90
2014,07,28,09,08,17.90
2014,07,28,09,09,17.90
2014,07,28,09,10,17.90
2014,07,28,09,11,17.90
2014,07,28,09,12,18.00
2014,07,28,09,13,18.00
2014,07,28,09,14,18.10
2014,07,28,09,15,18.10
2014,07,28,09,16,18.20
2014,07,28,09,17,18.20
2014,07,28,09,18,18.20
2014,07,28,09,19,18.30
2014,07,28,09,20,18.30
2014,07,28,09,21,18.40
2014,07,28,09,22,18.40
2014,07,28,09,23,18.40
2014,07,28,09,24,18.40
2014,07,28,09,25,18.40
2014,07,28,09,26,18.40
2014,07,28,09,27,18.50
2014,07,28,09,28,18.60
2014,07,28,09,29,18.60
2014,07,28,09,30,18.60
2014,07,28,09,31,18.50
2014,07,28,09,32,18.60
2014,07,28,09,33,18.60
2014,07,28,09,34,18.60
2014,07,28,09,35,18.60
2014,07,28,09,36,18.60
2014,07,28,09,37,18.60
2014,07,28,09,38,18.60
2014,07,28,09,39,18.60
2014,07,28,09,40,18.70
2014,07,28,09,41,18.70
2014,07,28,09,42,18.80
2014,07,28,09,43,18.80
2014,07,28,09,44,18.90
2014,07,28,09,45,18.90
2014,07,28,09,46,18.90
2014,07,28,09,47,18.90
2014,07,28,09,48,18.90
2014,07,28,09,49,18.90
2014,07,28,09,50,18.90
2014,07,28,09,51,18.90
2014,07,28,09,52,19.00
2014,07,28,09,53,19.00
2014,07,28,09,54,18.90
2014,07,28,09,55,18.90
2014,07,28,09,56,18.90
2014,07,28,09,57,18.90
2014,07,28,09,58,18.90
2014,07,28,09,59,18.90
2014,07,28,10,00,18.90
2014,07,28,10,01,19.00
2014,07,28,10,02,19.00
2014,07,28,10,03,19.00
2014,07,28,10,04,19.10
2014,07,28,10,05,19.10
2014,07,28,10,06,19.20
2014,07,28,10,07,19.20
2014,07,28,10,08,19.30
2014,07,28,10,09,19.40
2014,07,28,10,10,19.40
2014,07,28,10,11,19.40
2014,07,28,10,12,19.40
2014,07,28,10,13,19.50
2014,07,28,10,14,19.50
2014,07,28,10,15,19.60
2014,07,28,10,16,19.70
2014,07,28,10,17,19.70
2014,07,28,10,18,19.80
2014,07,28,10,19,19.80
2014,07,28,10,20,19.90
2014,07,28,10,21,19.90
2014,07,28,10,22,20.00
2014,07,28,10,23,20.00
2014,07,28,10,24,20.10
2014,07,28,10,25,20.10
2014,07,28,10,26,20.20
2014,07,28,10,27,20.20
2014,07,28,10,28,20.20
2014,07,28,10,29,20.20
2014,07,28,10,30,20.30
2014,07,28,10,31,20.20
2014,07,28,10,32,20.20
2014,07,28,10,33,20.20
2014,07,28,10,34,20.20
2014,07,28,10,35,20.20
2014,07,28,10,36,20.20
2014,07,28,10,37,20.30
2014,07,28,10,38,20.30
2014,07,28,10,39,20.20
2014,07,28,10,40,20.20
2014,07,28,10,41,20.30
2014,07,28,10,42,20.30
2014,07,28,10,43,20.30
2014,07,28,10,44,20.30
2014,07,28,10,45,20.30
2014,07,28,10,46,20.40
2014,07,28,10,47,20.40
2014,07,28,10,48,20.40
2014,07,28,10,49,20.50
2014,07,28,10,50,20.50
2014,07,28,10,51,20.50
2014,07,28,10,52,20.50
2014,07,28,10,53,20.60
2014,07,28,10,54,20.60
2014,07,28,10,55,20.70
2014,07,28,10,56,20.70
2014,07,28,10,57,20.80
2014,07,28,10,58,20.90
2014,07,28,10,59,21.00
2014,07,28,11,00,21.00
2014,07,28,11,01,21.10
2014,07,28,11,02,21.10
2014,07,28,11,03,21.20
2014,07,28,11,04,21.30
2014,07,28,11,05,21.30
2014,07,28,11,06,21.40
2014,07,28,11,07,21.40
2014,07,28,11,08,21.40
2014,07,28,11,09,21.50
2014,07,28,11,10,21.50
2014,07,28,11,11,21.60
2014,07,28,11,12,21.60
2014,07,28,11,13,21.50
2014,07,28,11,14,21.40
2014,07,28,11,15,21.40
2014,07,28,11,16,21.40
2014,07,28,11,17,21.30
2014,07,28,11,18,21.20
2014,07,28,11,19,21.20
2014,07,28,11,20,21.20
2014,07,28,11,21,21.20
2014,07,28,11,22,21.10
2014,07,28,11,23,21.10
2014,07,28,11,24,21.10
2014,07,28,11,25,21.20
2014,07,28,11,26,21.20
2014,07,28,11,27,21.20
2014,07,28,11,28,21.30
2014,07,28,11,29,21.30
2014,07,28,11,30,21.30
2014,07,28,11,31,21.30
2014,07,28,11,32,21.40
2014,07,28,11,33,21.50
2014,07,28,11,34,21.50
2014,07,28,11,35,21.60
2014,07,28,11,36,21.70
2014,07,28,11,37,21.70
2014,07,28,11,38,21.80
2014,07,28,11,39,21.80
2014,07,28,11,40,21.80
2014,07,28,11,41,21.80
2014,07,28,11,42,21.80
2014,07,28,11,43,21.90
2014,07,28,11,44,21.90
2014,07,28,11,45,21.90
2014,07,28,11,46,21.90
2014,07,28,11,47,21.90
2014,07,28,11,48,21.90
2014,07,28,11,49,21.90
2014,07,28,11,50,21.80
2014,07,28,11,51,21.80
2014,07,28,11,52,21.80
2014,07,28,11,53,21.90
2014,07,28,11,54,21.90
2014,07,28,11,55,21.90
2014,07,28,11,56,21.90
2014,07,28,11,57,22.00
2014,07,28,11,58,22.10
2014,07,28,11,59,22.10
2014,07,28,12,00,22.10
2014,07,28,12,01,22.10
2014,07,28,12,02,22.10
2014,07,28,12,03,22.10
2014,07,28,12,04,22.00
2014,07,28,12,05,22.00
2014,07,28,12,06,22.10
2014,07,28,12,07,22.10
2014,07,28,12,08,22.10
2014,07,28,12,09,22.00
2014,07,28,12,10,22.00
2014,07,28,12,11,21.90
2014,07,28,12,12,22.00
2014,07,28,12,13,22.00
2014,07,28,12,14,22.10
2014,07,28,12,15,22.10
2014,07,28,12,16,22.10
2014,07,28,12,17,22.10
2014,07,28,12,18,22.10
2014,07,28,12,19,22.20
2014,07,28,12,20,22.20
2014,07,28,12,21,22.30
2014,07,28,12,22,22.20
2014,07,28,12,23,22.30
2014,07,28,12,24,22.30
2014,07,28,12,25,22.40
2014,07,28,12,26,22.40
2014,07,28,12,27,22.50
2014,07,28,12,28,22.60
2014,07,28,12,29,22.70
2014,07,28,12,30,22.70
2014,07,28,12,31,22.70
2014,07,28,12,32,22.80
2014,07,28,12,33,22.90
2014,07,28,12,34,23.00
2014,07,28,12,35,23.20
2014,07,28,12,36,23.30
2014,07,28,12,37,23.40
2014,07,28,12,38,23.50
2014,07,28,12,39,23.60
2014,07,28,12,40,23.70
2014,07,28,12,41,23.70
2014,07,28,12,42,23.70
2014,07,28,12,43,23.70
2014,07,28,12,44,23.60
2014,07,28,12,45,23.60
2014,07,28,12,46,23.50
2014,07,28,12,47,23.40
2014,07,28,12,48,23.40
2014,07,28,12,49,23.40
2014,07,28,12,50,23.40
2014,07,28,12,51,23.40
2014,07,28,12,52,23.50
2014,07,28,12,53,23.60
2014,07,28,12,54,23.70
2014,07,28,12,55,23.70
2014,07,28,12,56,23.80
2014,07,28,12,57,23.80
2014,07,28,12,58,23.80
2014,07,28,12,59,23.90
2014,07,28,13,00,24.00
2014,07,28,13,01,24.10
2014,07,28,13,02,24.20
2014,07,28,13,03,24.30
2014,07,28,13,04,24.40
2014,07,28,13,05,24.30
2014,07,28,13,06,24.20
2014,07,28,13,07,24.20
2014,07,28,13,08,24.20
2014,07,28,13,09,24.20
2014,07,28,13,10,24.20
2014,07,28,13,11,24.10
2014,07,28,13,12,23.80
2014,07,28,13,13,23.80
2014,07,28,13,14,23.80
2014,07,28,13,15,23.70
2014,07,28,13,16,23.70
2014,07,28,13,17,23.70
2014,07,28,13,18,23.70
2014,07,28,13,19,23.70
2014,07,28,13,20,23.70
2014,07,28,13,21,23.70
2014,07,28,13,22,23.70
2014,07,28,13,23,23.70
2014,07,28,13,24,23.60
2014,07,28,13,25,23.50
2014,07,28,13,26,23.40
2014,07,28,13,27,23.40
2014,07,28,13,28,23.40
2014,07,28,13,29,23.40
2014,07,28,13,30,23.40
2014,07,28,13,31,23.40
2014,07,28,13,32,23.40
2014,07,28,13,33,23.30
2014,07,28,13,34,23.30
2014,07,28,13,35,23.30
2014,07,28,13,36,23.30
2014,07,28,13,37,23.40
2014,07,28,13,38,23.50
2014,07,28,13,39,23.50
2014,07,28,13,40,23.50
2014,07,28,13,41,23.50
2014,07,28,13,42,23.50
2014,07,28,13,43,23.40
2014,07,28,13,44,23.30
2014,07,28,13,45,23.30
2014,07,28,13,46,23.30
2014,07,28,13,47,23.30
2014,07,28,13,48,23.30
2014,07,28,13,49,23.30
2014,07,28,13,50,23.30
2014,07,28,13,51,23.20
2014,07,28,13,52,23.20
2014,07,28,13,53,23.20
2014,07,28,13,54,23.20
2014,07,28,13,55,23.20
2014,07,28,13,56,23.20
2014,07,28,13,57,23.20
2014,07,28,13,58,23.20
2014,07,28,13,59,23.20
2014,07,28,14,00,23.30
2014,07,28,14,01,23.40
2014,07,28,14,02,23.50
2014,07,28,14,03,23.50
2014,07,28,14,04,23.60
2014,07,28,14,05,23.60
2014,07,28,14,06,23.60
2014,07,28,14,07,23.70
2014,07,28,14,08,23.70
2014,07,28,14,09,23.80
2014,07,28,14,10,23.80
2014,07,28,14,11,23.80
2014,07,28,14,12,23.90
2014,07,28,14,13,23.90
2014,07,28,14,14,23.80
2014,07,28,14,15,23.80
2014,07,28,14,16,23.80
2014,07,28,14,17,23.90
2014,07,28,14,18,23.90
2014,07,28,14,19,23.90
2014,07,28,14,20,23.90
2014,07,28,14,21,24.00
2014,07,28,14,22,24.00
2014,07,28,14,23,24.00
2014,07,28,14,24,24.00
2014,07,28,14,25,24.00
2014,07,28,14,26,24.10
2014,07,28,14,27,24.10
2014,07,28,14,28,24.10
2014,07,28,14,29,24.10
2014,07,28,14,30,24.20
2014,07,28,14,31,24.20
2014,07,28,14,32,24.20
2014,07,28,14,33,24.30
2014,07,28,14,34,24.30
2014,07,28,14,35,24.30
2014,07,28,14,36,24.30
2014,07,28,14,37,24.30
2014,07,28,14,38,24.30
2014,07,28,14,39,24.30
2014,07,28,14,40,24.30
2014,07,28,14,41,24.30
2014,07,28,14,42,24.40
2014,07,28,14,43,24.40
2014,07,28,14,44,24.40
2014,07,28,14,45,24.40
2014,07,28,14,46,24.40
2014,07,28,14,47,24.50
2014,07,28,14,48,24.50
2014,07,28,14,49,24.60
2014,07,28,14,50,24.60
2014,07,28,14,51,24.60
2014,07,28,14,52,24.70
2014,07,28,14,53,24.80
2014,07,28,14,54,24.80
2014,07,28,14,55,24.90
2014,07,28,14,56,24.90
2014,07,28,14,57,24.90
2014,07,28,14,58,24.90
2014,07,28,14,59,24.90
2014,07,28,15,00,24.90
2014,07,28,15,01,25.00
2014,07,28,15,02,25.00
2014,07,28,15,03,25.00
2014,07,28,15,04,25.00
2014,07,28,15,05,25.00
2014,07,28,15,06,24.90
2014,07,28,15,07,24.90
2014,07,28,15,08,25.00
2014,07,28,15,09,25.00
2014,07,28,15,10,25.00
2014,07,28,15,11,25.00
2014,07,28,15,12,25.00
2014,07,28,15,13,25.00
2014,07,28,15,14,24.90
2014,07,28,15,15,24.90
2014,07,28,15,16,25.00
2014,07,28,15,17,25.10
2014,07,28,15,18,25.10
2014,07,28,15,19,25.10
2014,07,28,15,20,25.10
2014,07,28,15,21,25.20
2014,07,28,15,22,25.20
2014,07,28,15,23,25.20
2014,07,28,15,24,25.30
2014,07,28,15,25,25.30
2014,07,28,15,26,25.40
2014,07,28,15,27,25.50
2014,07,28,15,28,25.50
2014,07,28,15,29,25.50
2014,07,28,15,30,25.50
2014,07,28,15,31,25.40
2014,07,28,15,32,25.40
2014,07,28,15,33,25.40
2014,07,28,15,34,25.40
2014,07,28,15,35,25.30
2014,07,28,15,36,25.40
2014,07,28,15,37,25.40
2014,07,28,15,38,25.40
2014,07,28,15,39,25.50
2014,07,28,15,40,25.50
2014,07,28,15,41,25.60
2014,07,28,15,42,25.70
2014,07,28,15,43,25.70
2014,07,28,15,44,25.70
2014,07,28,15,45,25.70
2014,07,28,15,46,25.60
2014,07,28,15,47,25.60
2014,07,28,15,48,25.50
2014,07,28,15,49,25.50
2014,07,28,15,50,25.40
2014,07,28,15,51,25.40
2014,07,28,15,52,25.50
2014,07,28,15,53,25.50
2014,07,28,15,54,25.60
2014,07,28,15,55,25.60
2014,07,28,15,56,25.70
2014,07,28,15,57,25.80
2014,07,28,15,58,25.80
2014,07,28,15,59,25.80
2014,07,28,16,00,25.80
2014,07,28,16,01,25.80
2014,07,28,16,02,25.80
2014,07,28,16,03,25.70
2014,07,28,16,04,25.70
2014,07,28,16,05,25.60
2014,07,28,16,06,25.60
2014,07,28,16,07,25.60
2014,07,28,16,08,25.60
2014,07,28,16,09,25.60
2014,07,28,16,10,25.60
2014,07,28,16,11,25.60
2014,07,28,16,12,25.60
2014,07,28,16,13,25.70
2014,07,28,16,14,25.70
2014,07,28,16,15,25.80
2014,07,28,16,16,25.80
2014,07,28,16,17,25.80
2014,07,28,16,18,25.80
2014,07,28,16,19,25.80
2014,07,28,16,20,25.70
2014,07,28,16,21,25.70
2014,07,28,16,22,25.70
2014,07,28,16,23,25.70
2014,07,28,16,24,25.60
2014,07,28,16,25,25.60
2014,07,28,16,26,25.60
2014,07,28,16,27,25.60
2014,07,28,16,28,25.60
2014,07,28,16,29,25.60
2014,07,28,16,30,25.60
2014,07,28,16,31,25.60
2014,07,28,16,32,25.60
2014,07,28,16,33,25.60
2014,07,28,16,34,25.60
2014,07,28,16,35,25.60
2014,07,28,16,36,25.70
2014,07,28,16,37,25.70
2014,07,28,16,38,25.70
2014,07,28,16,39,25.70
2014,07,28,16,40,25.80
2014,07,28,16,41,25.80
2014,07,28,16,42,25.90
2014,07,28,16,43,26.00
2014,07,28,16,44,26.10
2014,07,28,16,45,26.20
2014,07,28,16,46,26.20
2014,07,28,16,47,26.30
2014,07,28,16,48,26.40
2014,07,28,16,49,26.40
2014,07,28,16,50,26.50
2014,07,28,16,51,26.60
2014,07,28,16,52,26.60
2014,07,28,16,53,26.70
2014,07,28,16,54,26.70
2014,07,28,16,55,26.80
2014,07,28,16,56,26.80
2014,07,28,16,57,26.80
2014,07,28,16,58,26.80
2014,07,28,16,59,26.80
2014,07,28,17,00,26.80
2014,07,28,17,01,26.80
2014,07,28,17,02,26.80
2014,07,28,17,03,26.90
2014,07,28,17,04,26.90
2014,07,28,17,05,26.90
2014,07,28,17,06,26.90
2014,07,28,17,07,26.90
2014,07,28,17,08,26.90
2014,07,28,17,09,26.90
2014,07,28,17,10,26.80
2014,07,28,17,11,26.80
2014,07,28,17,12,26.80
2014,07,28,17,13,26.80
2014,07,28,17,14,26.80
2014,07,28,17,15,26.90
2014,07,28,17,16,26.90
2014,07,28,17,17,26.90
2014,07,28,17,18,26.90
2014,07,28,17,19,26.90